World > North America > United States > Kansas > Ionia  

Ionia, KS Hourly Weather Updates

Feedback E-mail the Weather

Quick Clicks

Ionia, KS Weather Maps

°F °C°F °C
Ionia Weather Map
UTC Time: 4/21/2024, 17:47
Your Time:

Ionia, KS Regional Weather

Expires:202404211800;;138548
ASUS43 KTOP 211708
RWRKS 

WEATHER ROUNDUP FOR KANSAS
NATIONAL WEATHER SERVICE GOODLAND KS
1200 PM CDT SUN APR 21 2024

NOTE:  "FAIR" INDICATES FEW OR NO CLOUDS BELOW 12,000 FEET WITH NO
SIGNIFICANT WEATHER AND/OR OBSTRUCTIONS TO VISIBILITY.


KSZ007>012-019>026-033>040-048>060-102>105-211800-
NORTHEAST KANSAS
  
CITY           SKY/WX    TMP DP  RH WIND       PRES   REMARKS
CONCORDIA      SUNNY     56  25  30 NW12      30.39F                  
EMPORIA        SUNNY     57  26  30 NW14G21   30.38F                  
LAWRENCE       SUNNY     56  26  31 VRB5G18   30.38F                  
MANHATTAN      SUNNY     56  28  34 VRB7G16   30.40S                  
MARYSVILLE     SUNNY     54  25  32 N13       30.39S                  
OLATHE IND     SUNNY     55  26  32 N9G23     30.38S                  
OLATHE EXE     SUNNY     53  23  31 N13G20    30.37S                  
SALINA         SUNNY     56  29  35 N9        30.41F                  
TOPEKA BILLARD SUNNY     56  27  32 VRB5G17   30.38S                  
TOPEKA FORBES  SUNNY     54  29  38 NW9G16    30.38F                  
$$
  

SKY/WX - Weather  TMP - Temperature  DP - Dew Point  RH - Humidity
WIND - Wind Direction/Speed PRES - Barometric Pressure VSB - Visibility
WCI - Wind Chill Index E13G22 Wind - East Wind 13 mph/Gusts of 22 mph

Trending Headlines

Trending Entertainment Headlines

Ionia Radar Loop

Use the map search tool if you want to place a location marker on the radar map...

Ionia Quick Facts

National Two Day Weather Forecast


E-mail the Ionia Weather Forecast

Voice your opinion or tell us about page issues...